Starlink 30953

operational
NORAD ID: 58491 Int'l Des: 2023-186 Owner: SPXS Country: US Constellation: starlink
LEOCIRCULAR

关于 Starlink 30953

正在加载描述...

实时位置

正在加载3D地球...

即将过境

高度历史

Altitude vs Time

uPlot chart will show altitude changes over time

两行轨道根数

1 58491U 23186U 25259.13045878 .00015516 00000-0 57154-3 0 9999
2 58491 43.0016 173.3147 0001151 280.6947 79.3775 15.27615670101193
Epoch: Sep 16, 2025 • Age: 14 hours

当前状态

高度 485.1 km
速度 7.63 km/s
星下点 36.11°N, 37.62°W
发射日期 Dec 3, 2023
运行时间 1.7 years
类型 internet

技术详情

分类 Payload
质量 730.00 kg
干质量 700.00 kg
总质量 730.00 kg
长度 0.30 m
直径 4.10 m
跨度 29.00 m
形状 Box + pan
制造商 SPXS
平台类型 Starlink V2M
阶段状态 In Orbit
所有者/国家 SPXS/US

大型星座

Loading constellations...